EDT,Max TemperatureF,Mean TemperatureF,Min TemperatureF,Max Dew PointF,MeanDew PointF,Min DewpointF,Max Humidity, Mean Humidity, Min Humidity, Max Sea Level PressureIn, Mean Sea Level PressureIn, Min Sea Level PressureIn, Max VisibilityMiles, Mean VisibilityMiles, Min VisibilityMiles, Max Wind SpeedMPH, Mean Wind SpeedMPH, Max Gust SpeedMPH,PrecipitationIn, CloudCover, Events, WindDirDegrees
2011-9-1,80,76,71,69,66,64,87,75,62,30.14,30.09,30.05,10,10,10,15,9,24,0.00,0,,31
2011-9-2,84,77,70,68,65,62,84,66,48,30.08,30.05,30.01,10,10,10,12,6,17,0.00,0,,48
2011-9-3,82,76,69,68,65,64,90,74,58,30.04,30.01,29.98,10,10,10,13,5,18,0.00,0,,48
2011-9-4,89,78,67,72,69,64,93,74,55,30.00,29.96,29.91,10,10,4,12,4,14,0.00,0,,111
2011-9-5,85,81,76,73,72,70,85,75,65,29.92,29.89,29.85,10,10,2,17,10,22,0.06,3,Rain,209
2011-9-6,88,84,80,76,74,72,85,75,65,29.97,29.91,29.86,10,9,7,16,12,22,0.00,1,,187
2011-9-7,92,86,80,76,75,73,85,74,63,30.00,29.95,29.92,9,7,3,15,9,20,0.00,1,,164
2011-9-8,88,83,78,77,74,68,85,74,63,29.93,29.85,29.81,10,5,1,12,4,15,T,6,Rain,175
2011-9-9,87,82,76,70,65,59,74,58,42,29.92,29.88,29.84,10,10,5,17,9,23,0.00,0,,249
2011-9-10,87,81,75,68,65,63,74,63,51,30.01,29.95,29.90,10,10,10,14,8,18,0.00,0,,254
2011-9-11,88,83,77,70,67,65,76,62,48,30.10,30.06,30.02,10,10,7,10,6,15,0.00,0,,242
2011-9-12,88,79,70,71,69,64,84,70,55,30.09,30.04,29.99,10,10,2,21,5,28,0.17,1,Rain,201
2011-9-13,86,77,68,72,67,65,90,73,55,30.05,30.02,29.99,10,9,4,9,2,13,0.00,1,,120
2011-9-14,87,77,67,70,66,63,90,68,46,30.02,29.99,29.94,10,8,2,13,3,16,0.00,1,,104
2011-9-15,87,78,68,72,69,66,90,72,53,30.04,29.94,29.88,10,9,2,21,7,38,0.28,2,Rain,284
2011-9-16,72,69,66,66,57,52,73,66,58,30.23,30.19,30.06,10,10,10,20,14,33,T,8,Rain,46
2011-9-17,75,72,68,70,67,62,97,85,73,30.20,30.16,30.12,10,4,1,20,10,32,6.96,8,Rain,57
2011-9-18,76,72,68,66,65,63,84,77,69,30.21,30.18,30.14,10,9,3,17,10,28,0.06,8,Rain,30
2011-9-19,78,74,69,67,64,63,84,73,62,30.19,30.16,30.12,10,10,10,16,9,23,0.00,4,,42
2011-9-20,82,76,70,73,69,64,93,81,69,30.16,30.12,30.08,10,8,1,16,4,21,0.35,4,Rain,96
2011-9-21,83,77,71,73,71,66,93,84,74,30.16,30.13,30.09,10,8,2,16,6,21,0.83,4,Rain,143
2011-9-22,84,79,74,73,72,70,94,84,74,30.17,30.14,30.11,10,9,4,17,7,24,0.29,2,Rain,165
2011-9-23,84,79,74,75,73,72,94,84,74,30.13,30.01,29.96,10,7,1,26,10,36,0.46,4,Rain,202
2011-9-24,78,75,72,74,72,69,94,87,79,30.03,30.00,29.96,10,5,1,23,8,30,2.48,7,Rain,120
2011-9-25,79,75,71,74,72,68,94,87,79,30.07,30.03,29.98,10,5,1,17,5,22,1.24,7,Rain,117
2011-9-26,81,77,73,75,72,71,94,87,79,30.02,29.97,29.94,10,6,1,24,6,31,0.96,6,Rain,249
2011-9-27,81,77,73,74,71,69,93,84,74,30.00,29.96,29.91,10,8,2,21,7,29,0.06,3,Rain,212
2011-9-28,87,81,74,75,72,69,87,76,65,29.94,29.90,29.85,10,10,7,22,7,25,0.00,1,,178
2011-9-29,82,78,73,74,72,66,88,79,69,29.88,29.82,29.75,10,9,3,25,9,37,0.03,1,Rain,223
2011-9-30,83,76,68,73,70,59,93,79,65,29.82,29.75,29.65,10,9,2,31,7,52,T,1,,230